Orange, MA

9:44 PM EST on December 13, 2019 (GMT -0500)
Orange Municipal

Weather History for KORE - October, 2019

Change the Weather History Date:

Thursday, October 24, 2019

  Actual Average Record
Temperature  
Mean Temperature 48 °F -  
Max Temperature 66 °F 54 °F 75 °F (2001)
Min Temperature 30 °F 31 °F 19 °F (2002)
Degree Days  
Heating Degree Days 17    
Moisture  
Dew Point 33 °F    
Average Humidity 77    
Maximum Humidity 93    
Minimum Humidity 32    
Precipitation  
Precipitation 0.00 in - - ()
Sea Level Pressure  
Sea Level Pressure 30.23 in    
Wind  
Wind Speed 2 mph ()    
Max Wind Speed 20 mph    
Max Gust Speed 24 mph    
Visibility 6.4 miles    
Events      
Averages and records for this station are not official NWS values.
T = Trace of Precipitation, MM = Missing Value Source: Averaged Metar Reports

Daily Weather History Graph

Daily Weather History Graph

Search for Another Location

Airport or City:

Astronomy

Oct. 24, 2019 Rise Set
Actual Time 7:12 AM EDT 5:53 PM EDT
Civil Twilight 6:43 AM EDT 6:22 PM EDT
Nautical Twilight 6:10 AM EDT 6:55 PM EDT
Astronomical Twilight 5:38 AM EDT 7:27 PM EDT
Moon 2:31 AM EDT (10/24) 4:26 PM EDT (10/24)
Length of Visible Light 11h 38m
Length of Day
10h 40m
Waning Crescent, 17% of the Moon is Illuminated
Oct 24
Waning Crescent
Oct 27
New
Nov 4
First Quarter
Nov 12
Full
Nov 19
Last Quarter

Hourly Weather History & Observations

Time (EDT) Temp. Windchill Dew Point Humidity Pressure Visibility Wind Dir Wind Speed Gust Speed Precip Events Conditions
12:04 AM 37.0 °F - 35.1 °F 93% 30.12 in 1.2 mi Calm Calm - N/A   Scattered Clouds
12:06 AM 37.0 °F - 35.1 °F 93% 30.13 in 2.5 mi Calm Calm - N/A   Scattered Clouds
12:13 AM 37.0 °F - 34.0 °F 89% 30.13 in 9.0 mi Calm Calm - N/A   Partly Cloudy
12:52 AM 36.0 °F 33.3 °F 34.0 °F 93% 30.16 in 10.0 mi South 3.5 mph - N/A   Clear
1:52 AM 36.0 °F - 33.1 °F 89% 30.17 in 10.0 mi Calm Calm - N/A   Clear
2:52 AM 34.0 °F - 30.9 °F 89% 30.18 in 10.0 mi Calm Calm - N/A   Clear
3:41 AM 34.0 °F - 30.0 °F 85% 30.19 in 10.0 mi Calm Calm - N/A   Partly Cloudy
3:52 AM 33.1 °F - 30.9 °F 92% 30.20 in 5.0 mi Calm Calm - N/A   Partly Cloudy
4:49 AM 32.0 °F - 30.2 °F 93% 30.22 in 1.5 mi Calm Calm - N/A   Scattered Clouds
4:52 AM 32.0 °F - 30.0 °F 92% 30.24 in 0.8 mi Calm Calm - N/A   Mist
5:05 AM 32.0 °F - 30.0 °F 92% 30.22 in 1.2 mi Calm Calm - N/A   Mostly Cloudy
5:07 AM 32.0 °F - 30.0 °F 92% 30.22 in 2.0 mi Calm Calm - N/A   Mostly Cloudy
5:14 AM 32.0 °F - 30.0 °F 92% 30.23 in 3.0 mi Calm Calm - N/A   Mostly Cloudy
5:18 AM 32.0 °F - 28.9 °F 88% 30.23 in 1.8 mi Calm Calm - N/A   Mostly Cloudy
5:28 AM 32.0 °F - 30.0 °F 92% 30.24 in 3.0 mi Calm Calm - N/A   Mostly Cloudy
5:33 AM 32.0 °F - 30.0 °F 92% 30.24 in 2.5 mi Calm Calm - N/A   Scattered Clouds
5:37 AM 32.0 °F - 28.9 °F 88% 30.24 in 1.2 mi Calm Calm - N/A   Mostly Cloudy
5:41 AM 32.0 °F - 28.9 °F 88% 30.24 in 0.8 mi Calm Calm - N/A   Mist
5:52 AM 30.9 °F - 28.9 °F 92% 30.25 in 0.8 mi Calm Calm - N/A   Mist
6:07 AM 32.0 °F - 28.9 °F 88% 30.24 in 1.0 mi Calm Calm - N/A   Mist
6:14 AM 30.9 °F - 28.9 °F 92% 30.25 in 1.5 mi Calm Calm - N/A   Partly Cloudy
6:17 AM 30.9 °F - 28.0 °F 89% 30.25 in 3.0 mi Calm Calm - N/A   Partly Cloudy
6:38 AM 30.9 °F - 28.0 °F 89% 30.25 in 2.0 mi Calm Calm - N/A   Clear
6:49 AM 30.2 °F - 28.4 °F 93% 30.25 in 7.0 mi Calm Calm - N/A   Clear
6:52 AM 30.9 °F - 28.0 °F 89% 30.27 in 7.0 mi Calm Calm - N/A   Clear
7:52 AM 32.0 °F - 30.0 °F 92% 30.30 in 7.0 mi Calm Calm - N/A   Clear
8:08 AM 33.1 °F - 30.9 °F 92% 30.28 in 10.0 mi Calm Calm - N/A   Partly Cloudy
8:52 AM 36.0 °F - 34.0 °F 93% 30.30 in 10.0 mi Calm Calm - N/A   Clear
9:52 AM 46.0 °F - 39.0 °F 76% 30.31 in 10.0 mi Calm Calm - N/A   Clear
10:52 AM 57.0 °F - 39.9 °F 53% 30.30 in 10.0 mi South 5.8 mph - N/A   Clear
11:52 AM 61.0 °F - 33.1 °F 35% 30.28 in 10.0 mi South 15.0 mph - N/A   Clear
12:52 PM 63.0 °F - 34.0 °F 34% 30.25 in 10.0 mi South 15.0 mph - N/A   Clear
1:52 PM 64.9 °F - 36.0 °F 34% 30.22 in 10.0 mi SSW 19.6 mph 24.2 mph N/A   Clear
2:52 PM 66.0 °F - 35.1 °F 32% 30.22 in 10.0 mi SSW 16.1 mph - N/A   Clear
3:52 PM 66.9 °F - 36.0 °F 32% 30.21 in 10.0 mi South 9.2 mph 20.7 mph N/A   Clear
4:52 PM 64.9 °F - 36.0 °F 34% 30.21 in 10.0 mi South 10.4 mph - N/A   Clear
5:52 PM 60.1 °F - 37.0 °F 42% 30.22 in 10.0 mi SSW 5.8 mph - N/A   Clear
6:52 PM 60.1 °F - 37.9 °F 44% 30.23 in 10.0 mi South 6.9 mph - N/A   Clear
7:52 PM 55.0 °F - 37.9 °F 53% 30.24 in 10.0 mi SW 4.6 mph - N/A   Clear
8:52 PM 51.1 °F - 37.9 °F 61% 30.25 in 10.0 mi SSW 5.8 mph - N/A   Clear
9:52 PM 45.0 °F - 39.0 °F 80% 30.27 in 10.0 mi Calm Calm - N/A   Clear
10:52 PM 50.0 °F - 37.9 °F 63% 30.28 in 10.0 mi South 6.9 mph - N/A   Clear
11:52 PM 44.1 °F - 37.9 °F 79% 30.29 in 10.0 mi Calm Calm - N/A   Clear